TimePDT,TemperatureF,Dew PointF,Humidity,Sea Level PressureIn,VisibilityMPH,Wind Direction,Wind SpeedMPH,Gust SpeedMPH,PrecipitationIn,Events,Conditions,WindDirDegrees,DateUTC
12:56 AM,48.0,19.9,33,29.95,10.0,ENE,4.6,-,N/A,,Clear,70,2013-05-04 07:56:00
1:56 AM,37.9,19.0,47,29.95,10.0,Calm,Calm,-,N/A,,Clear,0,2013-05-04 08:56:00
2:56 AM,35.1,19.0,52,29.95,10.0,Calm,Calm,-,N/A,,Clear,0,2013-05-04 09:56:00
3:56 AM,35.1,19.0,52,29.94,10.0,Calm,Calm,-,N/A,,Clear,0,2013-05-04 10:56:00
4:56 AM,36.0,19.0,50,29.94,10.0,Calm,Calm,-,N/A,,Clear,0,2013-05-04 11:56:00
5:56 AM,34.0,18.0,52,29.95,10.0,North,3.5,-,N/A,,Clear,360,2013-05-04 12:56:00
6:56 AM,39.0,21.0,49,29.94,10.0,Calm,Calm,-,N/A,,Clear,0,2013-05-04 13:56:00
7:56 AM,46.0,23.0,40,29.92,10.0,WSW,3.5,-,N/A,,Clear,250,2013-05-04 14:56:00
8:56 AM,52.0,24.1,34,29.90,10.0,ENE,3.5,-,N/A,,Clear,60,2013-05-04 15:56:00
9:56 AM,55.9,26.1,32,29.88,10.0,Calm,Calm,-,N/A,,Clear,0,2013-05-04 16:56:00
10:56 AM,59.0,24.1,26,29.87,10.0,NNE,8.1,-,N/A,,Clear,30,2013-05-04 17:56:00
11:56 AM,62.1,21.0,21,29.84,10.0,Variable,5.8,-,N/A,,Clear,0,2013-05-04 18:56:00
12:56 PM,63.0,18.0,18,29.81,10.0,Variable,3.5,-,N/A,,Clear,0,2013-05-04 19:56:00
1:56 PM,64.0,15.1,15,29.82,10.0,Variable,3.5,-,N/A,,Clear,0,2013-05-04 20:56:00
2:56 PM,68.0,21.0,17,29.80,10.0,ENE,10.4,-,N/A,,Partly Cloudy,70,2013-05-04 21:56:00
3:56 PM,68.0,19.9,16,29.78,10.0,ENE,8.1,17.3,N/A,,Clear,70,2013-05-04 22:56:00
4:56 PM,69.1,18.0,14,29.76,10.0,Variable,6.9,-,N/A,,Clear,0,2013-05-04 23:56:00
5:56 PM,68.0,15.1,13,29.75,10.0,NNE,5.8,-,N/A,,Clear,20,2013-05-05 00:56:00
6:56 PM,64.0,21.0,19,29.75,10.0,East,10.4,-,N/A,,Clear,90,2013-05-05 01:56:00
7:56 PM,62.1,24.1,23,29.76,10.0,NE,18.4,21.9,N/A,,Clear,50,2013-05-05 02:56:00
8:56 PM,59.0,28.0,31,29.76,10.0,NNE,16.1,-,N/A,,Clear,30,2013-05-05 03:56:00
9:56 PM,57.0,27.0,32,29.76,10.0,NE,18.4,26.5,N/A,,Clear,40,2013-05-05 04:56:00
10:56 PM,55.0,28.9,37,29.76,10.0,NE,19.6,24.2,N/A,,Clear,40,2013-05-05 05:56:00
11:56 PM,53.1,28.9,40,29.75,10.0,NNE,15.0,-,N/A,,Clear,30,2013-05-05 06:56:00